Date,TemperatureHighF,TemperatureAvgF,TemperatureLowF,DewpointHighF,DewpointAvgF,DewpointLowF,HumidityHigh,HumidityAvg,HumidityLow,PressureMaxIn,PressureMinIn,WindSpeedMaxMPH,WindSpeedAvgMPH,GustSpeedMaxMPH,PrecipitationSumIn
2014-1-1,64.9,62.9,60.4,63.2,59.0,53.1,96,88,70,30.24,30.05,0,-999,0,0.00
2014-1-2,79.0,68.9,60.4,72.1,66.2,55.9,96,91,78,30.04,29.84,0,-999,0,0.00
2014-1-3,60.3,53.5,47.7,55.7,39.9,33.2,85,61,50,30.26,29.98,0,-999,0,0.00
2014-1-4,68.7,59.4,47.7,59.3,52.4,39.1,84,78,71,30.24,30.07,0,-999,0,0.00
2014-1-5,86.5,70.3,59.5,69.4,62.0,57.2,93,77,54,30.08,29.94,0,-999,0,0.00
2014-1-6,75.4,61.0,48.6,71.0,53.3,33.6,98,77,56,30.36,29.94,0,-999,0,0.00
2014-1-7,57.2,47.1,37.8,35.5,29.0,22.6,57,49,40,30.45,30.31,0,-999,0,0.00
2014-1-8,65.5,53.5,41.4,52.1,42.6,26.8,77,67,55,30.42,30.24,0,-999,0,0.00
2014-1-9,66.6,60.9,57.0,63.5,57.2,51.1,95,88,77,30.29,30.17,0,-999,0,0.00
2014-1-10,88.0,72.4,64.6,72.8,66.2,61.4,97,82,59,30.19,30.02,0,-999,0,0.00
2014-1-11,79.7,70.2,63.9,72.8,67.5,62.7,96,91,77,30.07,29.96,0,-999,0,0.00
2014-1-12,76.6,64.8,55.0,63.7,53.6,44.9,98,70,43,30.20,30.03,0,-999,0,0.00
2014-1-13,84.4,67.1,56.5,68.0,59.4,48.8,90,77,58,30.17,29.95,0,-999,0,0.00
2014-1-14,70.2,65.6,55.9,67.4,62.3,52.7,96,89,73,30.04,29.91,0,-999,0,0.00
2014-1-15,74.5,61.8,53.8,59.1,51.7,47.9,88,71,51,30.09,29.96,0,-999,0,0.00
2014-1-16,68.5,55.1,47.3,50.2,40.6,34.9,88,59,45,30.18,30.00,0,-999,0,0.00
2014-1-17,83.8,65.4,50.9,60.6,48.6,37.4,69,56,41,30.22,30.11,0,-999,0,0.00
2014-1-18,84.2,63.8,46.6,53.4,44.3,30.1,69,51,30,30.28,30.11,0,-999,0,0.00
2014-1-19,83.8,62.0,45.7,61.9,48.2,32.4,83,62,46,30.24,30.11,0,-999,0,0.00
2014-1-20,90.1,65.1,53.4,67.1,54.4,48.6,90,71,45,30.17,30.05,0,-999,0,0.00
2014-1-21,78.3,65.7,56.8,65.1,57.5,46.0,91,76,57,30.06,29.84,0,-999,0,0.00
2014-1-22,68.4,56.0,46.2,46.7,40.5,32.1,68,57,41,30.23,29.95,0,-999,0,0.00
2014-1-23,75.2,55.4,44.6,47.5,38.8,34.8,74,55,35,30.38,30.20,0,-999,0,0.00
2014-1-24,79.0,55.8,46.0,51.9,36.5,29.9,58,49,39,30.47,30.29,0,-999,0,0.00
2014-1-25,88.2,65.1,51.4,63.5,48.5,36.9,72,56,39,30.31,30.04,0,-999,0,0.00
2014-1-26,77.2,64.8,59.0,64.8,58.2,50.7,90,80,64,30.08,29.98,0,-999,0,0.00
2014-1-27,79.7,67.1,62.8,73.3,63.7,60.0,95,89,78,30.02,29.94,0,-999,0,0.00
2014-1-28,85.1,69.2,58.1,73.5,62.9,56.7,96,82,59,30.06,29.97,0,-999,0,0.00
2014-1-29,63.9,56.7,50.2,61.5,53.6,46.8,93,89,82,30.21,29.98,0,-999,0,0.00
2014-1-30,56.3,52.3,48.6,53.5,50.3,47.2,95,93,89,30.19,30.09,0,-999,0,0.00
2014-1-31,61.9,58.0,54.5,61.6,57.0,52.7,99,96,93,30.11,30.03,0,-999,0,0.00